Simultaneous Nadir Overpasses (SNOs) Predictions

Prediction of SNOs between NOAA-19 and NPP Satellite Orbit:

Table of predicted SNOs for the next 14.0 days since TLE Epoch: 8/17/2014
Index Date (NOAA-19) Time (NOAA-19) Lat,Lon (NOAA-19) SZA (NOAA-19 ) Date (NPP) Time (NPP) Lat,Lon (NPP) SZA (NPP ) Distance(km) Time Diff (sec)
1 08/19/2014 07:40:46 -81.00,-167.97 108.00 08/19/2014 07:41:45 -81.00,-167.95 108.04 0.30 59
2 08/19/2014 08:31:44 80.99, -0.39 71.97 08/19/2014 08:32:30 80.99, -0.49 71.96 1.86 46
3 08/19/2014 09:22:48 -80.98, 167.07 108.06 08/19/2014 09:23:14 -80.98, 167.06 108.07 0.36 26
4 08/19/2014 10:13:46 80.98, -25.34 71.91 08/19/2014 10:13:59 80.98, -25.49 71.92 2.53 13
5 08/19/2014 11:04:51 -80.98, 141.74 108.06 08/19/2014 11:04:44 -80.98, 141.70 108.05 0.87 7
6 08/19/2014
